轨道通信卫星FM118星 (ORBCOMM FM118)

导读 | 星芒AI

ORBCOMM FM118 是一颗由 ORBCOMM 公司运营的低轨(LEO)卫星,主要用于提供全球范围的物联网(IoT)和机器对机器(M2M)通信服务。该卫星运行在约 500 公里的轨道高度,支持远程数据传输、资产跟踪和监测应用。作为 ORBCOMM 通信网络的一部分,FM118 提供低功耗、广覆盖的连接解决方案,适用于物流、运输、农业和环境监测等行业。

基本信息
目录编号:
41183
目录名称:
ORBCOMM FM 118
国际标识:
2015-081E
轨道中心:
EARTH
卫星名称:
轨道通信卫星FM118星
卫星全名:
轨道通信卫星FM118星 (ORBCOMM FM118)
卫星状态:
在轨 (已飞行3595 天)
发射日期:
2015-12-22 UTC
国别 :
(ORB)
星等 :
--
轨道信息
数据来源 国际轨道数据
星历时间: 2025-10-25T17:46:00+0800
11小时前
查看轨道信息
半长轴: 7076.354km
偏心率: 0.0002128
轨道倾角: 47.005°
近地点辐角 15.721°
升交点赤经 31.507°
平近点角 344.374°
近地点: 696.713km
远地点: 699.725km
周期: 98.736分钟
每日圈数: 14.584398
详细信息
固有亮度:
8
最大亮度:
6.7
平衡模式:
三轴稳定
覆盖范围:
全球
运营商:
轨道通信公司
运营商所在国:
美国
使用方式:
暂无
卫星简介
轨道通信FM(Orbcomm FM)是一系列低地球轨道通信卫星,由美国卫星通信公司 Orbcomm运营。 截至2015年12月,已有63颗此类卫星绕地球运行。该卫星仍在工作。
2D轨道图
3D轨道图
轨道高度分析图
轨道倾角分析图
轨道综合分析图
查看轨道综合分析图